Voltar ao catálogo

DELTA 2 R/B

AtivoVLEO
NORAD 27872·ROCKET BODY·🇺🇸 United States

Lançado Aug 25, 2003 de Cape Canaveral Space Force Station

Loading…

Próximas Passagens (próximas 24 horas)

TLE

ObsoletoSource: Space-Track

Época: Aug 25, 2003, 06:16 UTC

1 27872U 03038B   03237.26117166 +.00001068 -33762-5 +00000-0 0  9997
2 27872 031.4831 218.4721 0014323 289.3337 338.6175 16.42059481000004

Acompanhe DELTA 2 R/B em tempo real com AllMySat

Download on the App Store